Regional Weather Roundup
Issued by NWS Jackson, KY

Home | Current Version | Previous Version | Graphics & Text | Print | Product List | Glossary On
Versions: 1 2 3 4 5 6 7 8 9 10 11 12 13 14 15 16 17 18 19 20 21 22 23 24 25 26 27 28
000
ASUS43 KJKL 300410
RWRJKL

EAST KENTUCKY HOURLY WEATHER ROUNDUP
NATIONAL WEATHER SERVICE JACKSON KY
1200 AM EDT SUN APR 30 2017

NOTE: "FAIR" INDICATES FEW OR NO CLOUDS BELOW 12,000 FEET WITH
NO SIGNIFICANT WEATHER AND/OR OBSTRUCTIONS TO VISIBILITY.

* THESE REPORTS ARE NOT UNDER NWS QUALITY CONTROL AND MAY NOT
  REPORT WEATHER SUCH AS PRECIPITATION AND FOG.

KYZ079-080-083-085-087-088-110-112-115-119-120-300500
...EASTERN KENTUCKY...

CITY           SKY/WX    TMP DP  RH WIND       PRES   REMARKS
JACKSON        CLEAR     75  63  66 SE5       30.04F
LONDON         CLOUDY    70  62  76 CALM      30.04S
SOMERSET*      CLEAR     75  61  60 CALM      30.03S
MONTICELLO*    CLOUDY    78  65  63 S8G25     30.03R
WILLIAMSBURG*  CLOUDY    75  63  64 SE5       30.04S
MIDDLESBORO*   CLOUDY    78  62  58 SW5       30.07R
HARLAN APT*    MOCLDY    75  59  57 CALM      30.08R
PIKE CO APT*     N/A     69  69  98 SE5       30.07F
BIG SANDY APT* CLOUDY    68  65  90 S5        30.04F
MOREHEAD APT*  LGT RAIN  73  66  78 CALM      30.01F
$$

KYZ035-036-041-042-044-050-067-078-099-300500
...CENTRAL KENTUCKY...

CITY           SKY/WX    TMP DP  RH WIND       PRES   REMARKS
MT STERLING*   CLEAR     70  63  78 SW7       30.01S
FLEMING/MASON* CLEAR     71  67  87 SE3       29.99F
DANVILLE*      CLOUDY    72  63  73 S6        30.01S
LEXINGTON      CLEAR     76  61  59 S12       29.99S
FRANKFORT      CLEAR     74  65  73 S8        29.95S
LOUISVILLE     MOCLDY    78  66  66 S9        29.93S
LEBANON*         N/A     77  64  65 S10G17    29.99S
GLASGOW*       CLEAR     72  64  76 S5        29.98R
BOWLING GREEN  PTCLDY    76  66  71 S5        29.96R
$$

KYZ091>093-OHZ055-061-077-WVZ005-015-034-035-042-300500
...SOUTHERN OHIO/WEST VIRGINIA...

CITY           SKY/WX    TMP DP  RH WIND       PRES   REMARKS
COVINGTON      CLOUDY    73  67  81 S7        29.94F
COLUMBUS       CLOUDY    56  56 100 E12       30.04F FOG
DAYTON         CLOUDY    54  53  97 E14       29.99F FOG
WILMINGTON     PTCLDY    60  60 100 NE8       29.98F FOG
HUNTINGTON     CLOUDY    72  67  84 SE3       30.02R
CHARLESTON     PTCLDY    71  66  84 CALM      30.04R
PINEVILLE*     MOCLDY    64  63  97 MISG      30.16F FOG
BECKLEY        CLEAR     71  62  73 S8        30.16R
BLUEFIELD      CLEAR     70  61  73 S8        30.20R
LOGAN CO APT*    N/A     73  63  68 S9        30.08R
$$

VAZ002-007-008-TNZ017-027-036-066-071-300500
...SOUTHWEST VIRGINIA/EAST TENNESSEE...

CITY           SKY/WX    TMP DP  RH WIND       PRES   REMARKS
WISE*          MOCLDY    72  59  64 S8        30.17R
JONESVILLE*      N/A     75  63  64 CALM      30.11R
ABINGDON*      CLOUDY    76  61  59 SW9       30.15S
BRISTOL        CLOUDY    75  64  68 S6        30.12R
MORRISTOWN*    CLEAR     75  61  60 CALM      30.07F
SEVIERVILLE*   PTCLDY    73  61  64 E6        30.06F
KNOXVILLE      MOCLDY    78  61  55 S8        30.06R
LAFOLLETTE*    CLEAR     79  64  61 S9        30.09R
OAK RIDGE      PTCLDY    75  65  70 CALM      30.07S
CROSSVILLE     CLOUDY    69  65  86 S7        30.10S
NASHVILLE      CLEAR     74  63  68 S7        29.98R
$$

...KEY TO REMARKS...
VSB - VISIBILITY IN MILES
WCI - WIND CHILL INDEX
HX  - HEAT INDEX

$$




USA.gov is the U.S. government's official web portal to all federal, state and local government web resources and services.